Location: Unspecified
(0.0000°N, 0.0000°E)
Time: 23:01:37
(UTC+00:00)

Altair 2 - Pass Details

Date: 12 November 2024
Orbit: 1017 x 1126 km, 90.0° (Epoch: 06 December)

Event Time Altitude Azimuth Distance (km) Brightness Sun altitude
Exits shadow 02:51:06 12° 186° (S) 2,828 11.0 -40.7°
Drops below altitude 10° 02:51:24 10° 186° (S) 2,939 11.1 -40.7°
Sets 02:53:57 0° 185° (S) 3,882 11.8 -40.1°
